Regional Weather Roundup
Issued by NWS Jackson, KY

Home | Current Version | Previous Version | Text Only | Print | Product List | Glossary On
Versions: 1 2 3 4 5 6 7 8 9 10 11 12 13 14 15 16 17 18 19 20 21 22 23 24 25 26 27 28
000
ASUS43 KJKL 221810
RWRJKL

EAST KENTUCKY HOURLY WEATHER ROUNDUP
NATIONAL WEATHER SERVICE JACKSON KY
200 PM EDT TUE MAY 22 2018

NOTE: "FAIR" INDICATES FEW OR NO CLOUDS BELOW 12,000 FEET WITH
NO SIGNIFICANT WEATHER AND/OR OBSTRUCTIONS TO VISIBILITY.

* THESE REPORTS ARE NOT UNDER NWS QUALITY CONTROL AND MAY NOT
  REPORT WEATHER SUCH AS PRECIPITATION AND FOG.

KYZ079-080-083-085-087-088-110-112-115-119-120-221900
...EASTERN KENTUCKY...

CITY           SKY/WX    TMP DP  RH WIND       PRES   REMARKS
JACKSON          N/A     74  68  81 CALM      30.09F
6HR MIN TEMP:  69; 6HR MAX TEMP:  79; 6HR PCP:  0.15;

LONDON         PTSUNNY   77  66  68 S9G25     30.09F
6HR MIN TEMP:  67; 6HR MAX TEMP:  79;

SOMERSET*      PTSUNNY   79  68  69 MISG      30.09F
MONTICELLO*    PTSUNNY   82  70  65 W9G17     30.09F
6HR MIN TEMP:  70; 6HR MAX TEMP:  82;

WILLIAMSBURG*  MOCLDY    75  68  78 S5        30.11F
MIDDLESBORO*   PTSUNNY   72  68  87 CALM      30.13F
6HR MIN TEMP:  65; 6HR MAX TEMP:  75; 6HR PCP:  0.10;

HARLAN APT*    CLOUDY    71  65  81 W5        30.14F
PIKE CO APT*     N/A     80  64  59 SW5       30.09F
BIG SANDY APT*   N/A     80  66  61 W12       30.08F
6HR MIN TEMP:  68; 6HR MAX TEMP:  81;

MOREHEAD APT*  LGT RAIN  75  66  73 NW12G17   30.08F
ASHLAND*       LGT RAIN  75  69  81 VRB7      30.05F
$$

KYZ035-036-041-042-044-050-067-078-099-221900
...CENTRAL KENTUCKY...

CITY           SKY/WX    TMP DP  RH WIND       PRES   REMARKS
MT STERLING*   PTSUNNY   72  70  94 W5        30.09F
FLEMING/MASON*   N/A     77  72  84 W9        30.07F
DANVILLE*      LGT RAIN  72  70  94 W3        30.09F
LEXINGTON        N/A     75  70  84 SW9       30.07F
6HR MIN TEMP:  70; 6HR MAX TEMP:  79; 6HR PCP:  0.11;

FRANKFORT        N/A     78  69  73 SW12      30.06F
6HR MIN TEMP:  69; 6HR MAX TEMP:  79; 6HR PCP:  0.39;

LOUISVILLE     PTSUNNY   81  70  69 SW8       30.04F
6HR MIN TEMP:  71; 6HR MAX TEMP:  81; 6HR PCP:  0.23;

LEBANON*         N/A     75  68  78 W3        30.08F
GLASGOW*       LGT RAIN  76  69  77 SW3       30.07F
BOWLING GREEN    N/A     80  71  74 NW3       30.06F
6HR MIN TEMP:  70; 6HR MAX TEMP:  84; 6HR PCP:  0.09;

$$

KYZ091>093-OHZ055-061-077-WVZ005-015-034-035-042-221900
...SOUTHERN OHIO/WEST VIRGINIA...

CITY           SKY/WX    TMP DP  RH WIND       PRES   REMARKS
COVINGTON      PTSUNNY   79  68  69 SW7       30.03F
COLUMBUS         N/A     79  66  64 W9        30.00F
DAYTON           N/A     80  70  71 SW12      30.03F
WILMINGTON     PTSUNNY   76  70  82 S10       30.03F
HUNTINGTON       N/A     82  65  56 SW13      30.05F
CHARLESTON     PTSUNNY   82  68  62 SW8       30.05F THUNDER
PINEVILLE*     LGT RAIN  69  67  91 MISG      30.17S
BECKLEY        LGT RAIN  68  65  90 W7        30.14F FOG
BLUEFIELD      PTSUNNY   74  60  61 W8        30.16F
LOGAN CO APT*  RAIN      68  64  88 S8G21     30.10S VSB 1
$$

VAZ002-007-008-TNZ017-027-036-066-071-221900
...SOUTHWEST VIRGINIA/EAST TENNESSEE...

CITY           SKY/WX    TMP DP  RH WIND       PRES   REMARKS
WISE*            N/A     73  61  64 SW12G18   30.17F
JONESVILLE*    LGT RAIN  73  68  83 CALM      30.15F
ABINGDON*      CLOUDY    77  63  61 W9        30.15F
BRISTOL        PTSUNNY   77  66  68 W3        30.13F
MORRISTOWN*    MOCLDY    79  68  69 N7        30.11F
SEVIERVILLE*   MOCLDY    81  68  65 VRB5      30.10F
KNOXVILLE      PTSUNNY   81  67  62 NW6       30.08F
LAFOLLETTE*    MOCLDY    75  66  73 CALM      30.14F
OAK RIDGE        N/A     81  68  64 VRB5      30.10F
CROSSVILLE     PTSUNNY  N/A N/A N/A SW9       30.13F
NASHVILLE      PTSUNNY   84  68  58 NE16      30.06F
$$

...KEY TO REMARKS...
VSB - VISIBILITY IN MILES
WCI - WIND CHILL INDEX
HX  - HEAT INDEX

$$




USA.gov is the U.S. government's official web portal to all federal, state and local government web resources and services.